This demonstration page uses our WeatherBlox Daily Observations layout. Learn more.

Left ArrowRight Arrow

Hourly Observations for March 25, 2020

Temp ( °F °C ) Dew Point ( °F °C ) Humidity (%) Winds ( mph kmh ) Pressure ( in mb ) Visibility ( mi km ) Precip ( " mm )
12:15 am 00:15 Clear 37 3 37 3 100 100 NNE 7 11 29.96 1015 5 8 N/A
12:35 am 00:35 Clear 37 3 37 3 100 100 N 7 11 29.95 1014 5 8 N/A
12:36 am 00:36 Clear 37 3 37 3 100 100 N 7 11 29.95 1014 5 8 N/A
12:55 am 00:55 Partly Cloudy 37 3 37 3 100 100 N 7 11 29.96 1015 4 6 N/A
1:15 am 01:15 Partly Cloudy 37 3 37 3 100 100 NNE 7 11 29.96 1015 4 6 N/A
1:35 am 01:35 Partly Cloudy 37 3 37 3 100 100 N 6 9 29.97 1015 4 6 N/A
1:36 am 01:36 Partly Cloudy 36 2 36 2 100 100 N 6 9 29.98 1015 4 6 N/A
1:55 am 01:55 Mostly Cloudy 37 3 37 3 100 100 NNE 7 11 29.96 1015 5 8 N/A
1:56 am 01:56 Mostly Cloudy 37 3 37 3 100 100 NE 8 13 29.96 1015 5 8 N/A
2:15 am 02:15 Cloudy 39 4 39 4 100 100 NE 9 15 29.96 1015 5 8 N/A
2:16 am 02:16 Cloudy 39 4 39 4 100 100 NE 9 15 29.96 1015 5 8 N/A
2:35 am 02:35 Cloudy 39 4 39 4 100 100 NE 8 13 29.95 1014 5 8 N/A
2:36 am 02:36 Cloudy 39 4 39 4 100 100 NE 8 13 29.95 1014 5 8 N/A
2:55 am 02:55 Cloudy 37 3 37 3 100 100 NE 8 13 29.95 1014 4 6 N/A
3:15 am 03:15 Cloudy 37 3 37 3 100 100 NNE 6 9 29.95 1014 4 6 N/A
3:35 am 03:35 Cloudy 37 3 37 3 100 100 NE 8 13 29.95 1014 4 6 N/A
3:36 am 03:36 Cloudy 37 3 37 3 100 100 NE 8 13 29.95 1014 4 6 N/A
3:55 am 03:55 Cloudy 37 3 37 3 100 100 N 7 11 29.96 1015 4 6 N/A
3:56 am 03:56 Cloudy 37 3 37 3 100 100 N 8 13 29.96 1015 4 6 N/A
4:15 am 04:15 Cloudy 37 3 37 3 100 100 N 6 9 29.96 1015 3 5 N/A
4:16 am 04:16 Cloudy 37 3 37 3 100 100 N 6 9 29.96 1015 3 5 N/A
4:35 am 04:35 Cloudy 37 3 37 3 100 100 N N/A 29.96 1015 3 5 N/A
4:36 am 04:36 Cloudy 37 3 37 3 100 100 N N/A 29.96 1015 3 5 N/A
4:55 am 04:55 Mostly Cloudy 36 2 36 2 100 100 N N/A 29.96 1014 3 5 N/A
5:15 am 05:15 Cloudy 36 2 36 2 100 100 NE 5 7 29.97 1015 3 5 N/A
5:35 am 05:35 Cloudy 36 2 36 2 100 100 NNE 5 7 29.97 1015 3 4 N/A
5:36 am 05:36 Cloudy 36 2 36 2 100 100 NE 3 6 29.97 1015 3 4 N/A
5:55 am 05:55 Cloudy 36 2 36 2 100 100 N N/A 29.98 1015 2 3 N/A
5:56 am 05:56 Cloudy 36 2 36 2 100 100 N N/A 29.98 1015 2 3 N/A
6:15 am 06:15 Cloudy 36 2 36 2 100 100 ENE 5 7 29.98 1015 0 0 N/A
6:35 am 06:35 Cloudy 36 2 36 2 100 100 ENE 3 6 30.00 1016 0 0 N/A
6:55 am 06:55 Cloudy 36 2 36 2 100 100 ENE 6 9 30.00 1016 0 0 N/A
7:15 am 07:15 Cloudy 34 1 34 1 100 100 NE 3 6 30.01 1016 0 0 N/A
7:16 am 07:16 Cloudy 34 1 34 1 100 100 N N/A 30.01 1016 0 0 N/A
7:35 am 07:35 Cloudy 34 1 34 1 100 100 N 3 6 30.01 1016 0 0 N/A
7:36 am 07:36 Cloudy 34 1 34 1 100 100 N 3 6 30.02 1017 0 0 N/A
7:55 am 07:55 Cloudy 34 1 34 1 100 100 N N/A 30.03 1017 N/A N/A
7:56 am 07:56 Cloudy 34 1 34 1 100 100 N N/A 30.03 1017 N/A N/A
8:15 am 08:15 Cloudy 34 1 34 1 100 100 N N/A 30.04 1017 N/A N/A
8:35 am 08:35 Cloudy 34 1 34 1 100 100 N N/A 30.04 1017 N/A N/A
8:36 am 08:36 Cloudy 34 1 34 1 100 100 N N/A 30.04 1017 N/A N/A
8:55 am 08:55 Cloudy 34 1 34 1 100 100 N N/A 30.04 1017 N/A N/A
9:15 am 09:15 Cloudy 34 1 34 1 100 100 N N/A 30.04 1017 N/A N/A
9:35 am 09:35 Cloudy 34 1 34 1 100 100 N N/A 30.05 1018 N/A N/A
9:36 am 09:36 Cloudy 34 1 34 1 100 100 N N/A 30.05 1018 N/A N/A
9:55 am 09:55 Cloudy 34 1 34 1 100 100 N N/A 30.05 1018 N/A N/A
9:56 am 09:56 Cloudy 34 1 34 1 100 100 N N/A 30.05 1018 N/A N/A
10:15 am 10:15 Cloudy 36 2 36 2 100 100 N N/A 30.04 1017 N/A N/A
10:35 am 10:35 Cloudy 36 2 36 2 100 100 N N/A 30.04 1017 0 0 N/A
10:55 am 10:55 Cloudy 37 3 37 3 100 100 N N/A 30.04 1017 0 0 N/A
11:15 am 11:15 Cloudy 37 3 37 3 100 100 N N/A 30.04 1017 1 1 N/A
11:35 am 11:35 Cloudy 37 3 37 3 100 100 N N/A 30.04 1017 1 2 N/A
11:36 am 11:36 Cloudy 37 3 37 3 100 100 N N/A 30.04 1017 1 2 N/A
11:55 am 11:55 Cloudy 39 4 39 4 100 100 N N/A 30.05 1018 3 5 N/A
12:15 pm 12:15 Cloudy 41 5 41 5 100 100 N N/A 30.05 1018 5 8 N/A
12:16 pm 12:16 Cloudy 41 5 41 5 100 100 N N/A 30.05 1018 5 8 N/A
12:35 pm 12:35 Cloudy 43 6 43 6 100 100 N N/A 30.04 1017 5 8 N/A
12:36 pm 12:36 Cloudy 43 6 43 6 100 100 N N/A 30.04 1017 5 8 N/A
12:55 pm 12:55 Mostly Cloudy 45 7 45 7 100 100 N N/A 30.04 1017 7 11 N/A
12:56 pm 12:56 Mostly Cloudy 45 7 45 7 100 100 N N/A 30.04 1017 7 11 N/A
1:15 pm 13:15 Partly Cloudy 46 8 45 7 93 93 N N/A 30.04 1017 10 16 N/A
1:16 pm 13:16 Partly Cloudy 46 8 46 8 100 100 SSW 5 7 30.04 1017 10 16 N/A
1:35 pm 13:35 Sunny 50 10 46 8 88 88 SW 5 7 30.02 1017 10 16 N/A
1:55 pm 13:55 Sunny 50 10 46 8 88 88 SSW 3 6 30.01 1016 10 16 N/A
2:15 pm 14:15 Sunny 52 11 46 8 82 82 S 5 7 30.01 1016 10 16 N/A
2:35 pm 14:35 Sunny 54 12 46 8 77 77 SSW 8 13 30.00 1016 10 16 N/A
2:55 pm 14:55 Sunny 55 13 46 8 72 72 SSW 6 9 29.99 1016 10 16 N/A
3:15 pm 15:15 Sunny 55 13 46 8 72 72 N N/A 29.99 1016 10 16 N/A
3:35 pm 15:35 Sunny 55 13 46 8 72 72 S 5 7 29.97 1015 10 16 N/A
3:55 pm 15:55 Sunny 57 14 46 8 67 67 S 8 13 29.97 1015 10 16 N/A
4:15 pm 16:15 Sunny 57 14 46 8 67 67 S 8 13 29.96 1014 10 16 N/A
4:35 pm 16:35 Sunny 57 14 45 7 63 63 SW 9 15 29.96 1014 10 16 N/A
4:36 pm 16:36 Sunny 57 14 46 8 67 67 SW 8 13 29.96 1014 10 16 N/A
4:55 pm 16:55 Sunny 59 15 45 7 59 59 S 7 11 29.94 1014 10 16 N/A
5:15 pm 17:15 Sunny 59 15 45 7 59 59 S 5 7 29.93 1014 10 16 N/A
5:35 pm 17:35 Sunny 59 15 45 7 59 59 SSE 9 15 29.92 1013 10 16 N/A
5:55 pm 17:55 Sunny 59 15 45 7 59 59 S 7 11 29.91 1013 10 16 N/A
5:56 pm 17:56 Sunny 59 15 45 7 59 59 S 8 13 29.91 1013 10 16 N/A
6:15 pm 18:15 Sunny 59 15 46 8 63 63 S 7 11 29.92 1013 10 16 N/A
6:35 pm 18:35 Sunny 59 15 46 8 63 63 S 8 13 29.92 1013 10 16 N/A
6:36 pm 18:36 Sunny 59 15 46 8 63 63 S 7 11 29.92 1013 10 16 N/A
6:55 pm 18:55 Sunny 59 15 46 8 63 63 SSW 5 7 29.92 1013 10 16 N/A
7:15 pm 19:15 Sunny 57 14 46 8 67 67 S 6 9 29.93 1013 10 16 N/A
7:35 pm 19:35 Sunny 55 13 46 8 72 72 SSE 6 9 29.93 1014 10 16 N/A
7:55 pm 19:55 Sunny 54 12 46 8 77 77 S 5 7 29.93 1014 10 16 N/A
7:56 pm 19:56 Sunny 54 12 46 8 77 77 S 5 7 29.93 1014 10 16 N/A
8:15 pm 20:15 Clear 54 12 46 8 77 77 S 3 6 29.94 1014 10 16 N/A
8:35 pm 20:35 Clear 52 11 46 8 82 82 SSE 6 9 29.94 1014 10 16 N/A
8:36 pm 20:36 Clear 52 11 46 8 82 82 SSE 6 9 29.95 1014 10 16 N/A
8:55 pm 20:55 Clear 52 11 45 7 77 77 SSE 5 7 29.94 1014 10 16 N/A
8:56 pm 20:56 Clear 52 11 45 7 77 77 SSE 5 7 29.94 1014 10 16 N/A
9:15 pm 21:15 Clear 48 9 46 8 94 94 SE 6 9 29.94 1014 10 16 N/A
9:35 pm 21:35 Clear 48 9 45 7 87 87 SE 5 7 29.94 1014 10 16 N/A
9:55 pm 21:55 Clear 50 10 45 7 82 82 SSE 5 7 29.94 1014 10 16 N/A
10:15 pm 22:15 Clear 48 9 45 7 87 87 SSE 5 7 29.94 1014 10 16 N/A
10:35 pm 22:35 Clear 50 10 46 8 88 88 SSE 6 9 29.93 1014 10 16 N/A
10:55 pm 22:55 Clear 50 10 46 8 88 88 S 6 9 29.93 1014 10 16 N/A
11:15 pm 23:15 Clear 48 9 46 8 94 94 S 6 9 29.94 1014 10 16 N/A
11:36 pm 23:36 Clear 50 10 46 8 88 88 SSE 7 11 29.93 1014 10 16 N/A
11:55 pm 23:55 Clear 50 10 46 8 88 88 SSE 6 9 29.91 1013 10 16 N/A

Powered by AerisWeather